#timestamp,LO_Frequency,Hit,StdDev 
1598094015.2,286047002.4,N
1598094035.0,286046997.4,N
1598094035.9,286046997.4,N
1598094055.8,286046995.5,N
1598094075.6,286046993.8,N
1598094095.5,286046990.6,N
1598094115.3,286046992.9,N
1598094135.1,286046987.3,N
1598094155.9,286046989.8,N
1598094175.7,286046991.2,N
1598094195.5,286046993.2,N
1598094215.4,286046992.6,N
1598094235.2,286046991.8,N
1598094255.1,286046990.2,N
1598094256.0,286046990.2,N
1598094275.8,286046994.2,N
1598094295.6,286046991.0,N
1598094315.5,286046987.2,N
1598094335.3,286046988.3,N
1598094355.1,286046985.5,N
1598094375.9,286046985.5,N
1598094395.7,286046986.5,N
1598094415.6,286046983.9,N
1598094435.4,286046982.6,Y
1598094455.2,286046988.5,P
1598094475.1,286046989.7,P
1598094476.0,286046989.7,P
1598094495.8,286046991.1,Y
1598094515.7,286047000.9,P
1598094535.5,286047000.4,N
1598094555.3,286047002.8,N
1598094575.2,286047000.3,N
1598094595.0,286046996.7,N
1598094595.9,286046996.7,N
1598094615.7,286046998.9,N
1598094635.6,286046998.9,N
1598094655.4,286047000.5,N
1598094675.3,286046997.2,N
1598094695.1,286046994.4,N
1598094715.8,286046989.7,Y
1598094735.7,286046991.0,P
1598094755.5,286046992.2,N
1598094775.4,286046992.2,N
1598094795.2,286046992.1,N
1598094815.1,286046993.6,N
1598094816.0,286046993.6,N
1598094835.8,286046996.2,N
1598094855.6,286046993.7,N
1598094875.5,286046990.4,Y
1598094895.3,286046993.8,P
1598094915.2,286046991.8,P
1598094935.0,286046990.3,P
1598094935.9,286046990.3,Y
1598094955.8,286047000.6,P
1598094975.6,286046999.9,N
1598094995.4,286047004.3,N
1598095015.3,286047004.5,N
1598095035.1,286047004.2,N
1598095055.8,286047004.6,N
1598095075.7,286047010.0,N
1598095095.5,286047008.7,N
1598095115.4,286047007.3,N
1598095135.2,286047007.2,N
1598095155.0,286047005.3,N
1598095155.9,286047005.3,N
1598095175.8,286047006.9,N
1598095195.6,286047005.9,N
1598095215.4,286047003.8,N
1598095235.3,286047002.0,N
1598095255.1,286047004.0,N
1598095275.9,286047003.1,N
1598095295.7,286047004.4,N
1598095315.5,286047004.3,N
1598095335.4,286047000.9,N
1598095355.2,286047000.8,N
1598095375.0,286047002.6,N
1598095375.9,286047002.6,N
1598095395.8,286047003.8,N
1598095415.6,286047002.1,N
1598095435.5,286047001.5,N
1598095455.3,286047003.2,N
1598095475.1,286047006.6,N
1598095495.9,286047010.8,Y
1598095515.7,286047004.5,P
1598095535.6,286047003.3,P
1598095555.4,286047005.5,P
1598095575.2,286047006.9,Y
1598095595.1,286047008.4,P
1598095596.0,286047008.4,P
1598095615.8,286047011.5,P
1598095635.7,286047013.4,Y
1598095655.5,286047005.9,P
1598095675.3,286047005.0,P
1598095695.2,286047004.6,P
1598095715.0,286047009.2,Y
1598095715.9,286047009.2,P
1598095735.7,286047001.7,N
1598095755.6,286047002.4,N
1598095775.4,286046999.8,N
1598095795.3,286047000.5,N
1598095815.1,286047003.9,N
1598095816.0,286047003.9,N
1598095835.8,286047005.3,N
1598095855.7,286047004.7,N
1598095875.5,286047009.0,Y
1598095895.4,286047012.0,P
1598095915.2,286047011.3,N
1598095935.0,286047012.5,P
1598095935.9,286047012.5,Y
1598095955.8,286047010.4,P
1598095975.6,286047010.5,P
1598095995.5,286047008.4,P
1598096015.3,286047009.7,Y
1598096035.1,286047001.2,P
1598096055.9,286047001.1,N
1598096075.7,286046998.3,N
1598096095.6,286047002.5,N
1598096115.4,286047003.9,N
1598096135.2,286047000.0,N
1598096155.1,286047003.9,N
1598096156.0,286047003.9,N
1598096175.8,286047004.9,N
1598096195.7,286047007.2,N
1598096215.5,286047008.8,N
1598096235.3,286047009.5,N
1598096255.2,286047018.6,Y
1598096275.0,286047013.4,P
1598096275.9,286047013.4,N
1598096295.7,286047012.1,N
1598096315.6,286047012.8,Y
1598096335.4,286047001.5,P
1598096355.3,286047004.2,N
1598096375.1,286047004.6,N
1598096395.9,286047011.6,Y
1598096415.7,286047010.5,P
1598096435.5,286047010.6,P
1598096455.4,286047009.0,P
1598096475.2,286047007.5,Y
1598096495.0,286046996.9,P
1598096495.9,286046996.9,N
1598096515.8,286046998.4,N
1598096535.6,286046996.0,N
1598096555.5,286046994.1,N
1598096575.3,286046992.2,N
1598096595.2,286046993.0,N
1598096615.9,286046990.6,N
1598096635.7,286046991.1,N
1598096655.6,286046988.5,N
1598096675.4,286046991.2,N
1598096695.2,286046990.7,N
1598096715.1,286046988.9,N
1598096716.0,286046988.9,N
1598096735.8,286046993.1,N
1598096755.7,286046994.3,N
1598096775.5,286046997.4,N
1598096795.3,286046997.0,N
1598096815.2,286046997.0,N
1598096835.0,286046998.7,N
1598096835.9,286046998.7,N
1598096855.8,286047000.5,N
1598096875.6,286047001.6,N
1598096895.4,286047004.1,N
1598096915.3,286047005.4,N
1598096935.1,286047008.6,N
1598096955.8,286047007.3,N
1598096975.7,286047005.9,N
1598096995.5,286047002.7,N
1598097015.4,286047002.9,N
1598097035.2,286047007.0,N
1598097055.0,286047007.9,N
1598097055.9,286047007.9,N
1598097075.8,286047004.5,N
1598097095.6,286047006.0,N
1598097115.4,286047005.2,N
1598097135.3,286047001.7,N
1598097155.1,286047002.5,N
1598097175.9,286047001.4,N
1598097195.7,286047001.5,N
1598097215.5,286047001.2,N
1598097235.4,286046994.9,N
1598097255.2,286046996.3,N
1598097275.0,286046994.2,N
1598097276.0,286046994.2,N
1598097295.8,286046993.7,N
1598097315.6,286046994.0,N
1598097335.5,286046995.9,N
1598097355.3,286046994.1,N
1598097375.1,286046993.6,N
1598097395.9,286046993.3,N
1598097415.7,286046996.0,N
1598097435.6,286046996.7,N
1598097455.4,286047001.5,N
1598097475.2,286047004.9,N
1598097495.1,286047004.8,N
1598097496.0,286047004.8,N
1598097515.8,286047008.9,N
1598097535.6,286047007.3,N
1598097555.5,286047009.1,N
1598097575.3,286047007.9,N
1598097595.2,286047006.5,N
